Location: Celina Division
(33.3022°N, 96.7580°W)
Time: 23:52:55
(UTC+00:00)

N. Korean satellite - Pass Details

Date: 03 December 2022
Orbit: 407 x 442 km, 97.3° (Epoch: 05 February)

Event Time Altitude Azimuth Distance (km) Brightness Sun altitude
Rises 23:53:47 0° 205° (SSW) 2,422 10.9 -7.4°
Reaches altitude 10° 23:56:28 10° 230° (SW) 1,572 10.5 -7.9°
Maximum altitude 23:58:27 15° 266° (W) 1,319 10.0 -8.3°
Drops below altitude 10° 00:00:28 10° 302° (WNW) 1,598 9.7 -8.7°
Sets 00:03:14 0° 327° (NNW) 2,490 10.3 -9.3°
